Lawton, OK

11:03 PM CDT on March 26, 2017 (GMT -0500)
Lawton-Fort Sill Regional

Weather History for KLAW - November, 2013

Change the Weather History Date:

Monday, November 18, 2013

  Actual Average Record
Temperature  
Mean Temperature 58 °F -  
Max Temperature 69 °F 60 °F 81 °F (1999)
Min Temperature 46 °F 37 °F 16 °F (1951)
Degree Days  
Heating Degree Days 8    
Growing Degree Days 8 (Base 50)    
Moisture  
Dew Point 26 °F    
Average Humidity 33    
Maximum Humidity 48    
Minimum Humidity 18    
Precipitation  
Precipitation 0.00 in - - ()
Sea Level Pressure  
Sea Level Pressure 30.17 in    
Wind  
Wind Speed 10 mph (NE)    
Max Wind Speed 13 mph    
Max Gust Speed -    
Visibility 10 miles    
Events      
Averages and records for this station are not official NWS values.
T = Trace of Precipitation, MM = Missing Value Source: NWS Daily Summary

Daily Weather History Graph

Daily Weather History Graph

Search for Another Location

Airport or City:

Trip Planner

Search our weather history database for the weather conditions in past years. The results will help you decide how hot, cold, wet, or windy it might be!

Date:

Astronomy

Nov. 18, 2013 Rise Set
Actual Time 7:10 AM CST 5:27 PM CST
Civil Twilight 6:43 AM CST 5:54 PM CST
Nautical Twilight 6:12 AM CST 6:24 PM CST
Astronomical Twilight 5:42 AM CST 6:54 PM CST
Moon 6:31 PM CST (11/18) 7:59 AM CST (11/18)
Length of Visible Light 11h 10m
Length of Day
10h 16m
Full, 99% of the Moon is Illuminated
Nov 18
Full
Nov 25
Last Quarter
Dec 2
New
Dec 9
First Quarter
Dec 17
Full

Hourly Weather History & Observations

Time (CST) Temp. Dew Point Humidity Pressure Visibility Wind Dir Wind Speed Gust Speed Precip Events Conditions
12:53 AM 52.0 °F 23.0 °F 32% 30.08 in 10.0 mi NNE 12.7 mph - N/A   Clear
1:53 AM 51.1 °F 21.9 °F 32% 30.09 in 10.0 mi NNE 10.4 mph - N/A   Clear
2:53 AM 50.0 °F 21.0 °F 32% 30.12 in 10.0 mi NNE 8.1 mph - N/A   Clear
3:53 AM 48.9 °F 21.0 °F 33% 30.13 in 10.0 mi NNE 8.1 mph - N/A   Clear
4:53 AM 50.0 °F 21.0 °F 32% 30.13 in 10.0 mi NNE 10.4 mph - N/A   Clear
5:53 AM 48.0 °F 21.9 °F 36% 30.16 in 10.0 mi NNE 11.5 mph - N/A   Clear
6:53 AM 46.9 °F 25.0 °F 42% 30.19 in 10.0 mi NNE 9.2 mph - N/A   Clear
7:53 AM 48.0 °F 26.1 °F 42% 30.22 in 10.0 mi NNE 10.4 mph - N/A   Clear
8:53 AM 52.0 °F 27.0 °F 38% 30.24 in 10.0 mi NNE 11.5 mph - N/A   Clear
9:53 AM 57.0 °F 26.1 °F 30% 30.24 in 10.0 mi NE 12.7 mph - N/A   Clear
10:53 AM 60.1 °F 26.1 °F 27% 30.24 in 10.0 mi ENE 9.2 mph - N/A   Clear
11:53 AM 64.9 °F 23.0 °F 20% 30.22 in 10.0 mi Variable 6.9 mph - N/A   Clear
12:53 PM 68.0 °F 23.0 °F 18% 30.19 in 10.0 mi NE 11.5 mph - N/A   Clear
1:53 PM 69.1 °F 23.0 °F 18% 30.17 in 10.0 mi ENE 11.5 mph - N/A   Clear
2:53 PM 66.9 °F 25.0 °F 21% 30.17 in 10.0 mi ENE 9.2 mph - N/A   Clear
3:53 PM 66.9 °F 27.0 °F 22% 30.16 in 10.0 mi ENE 10.4 mph - N/A   Clear
4:53 PM 64.0 °F 28.9 °F 27% 30.17 in 10.0 mi ENE 6.9 mph - N/A   Clear
5:53 PM 60.1 °F 28.9 °F 31% 30.17 in 10.0 mi NE 6.9 mph - N/A   Clear
6:53 PM 57.9 °F 30.0 °F 35% 30.17 in 10.0 mi ENE 6.9 mph - N/A   Clear
7:53 PM 57.0 °F 30.9 °F 37% 30.18 in 10.0 mi ENE 5.8 mph - N/A   Clear
8:53 PM 55.0 °F 32.0 °F 42% 30.19 in 10.0 mi East 6.9 mph - N/A   Clear
9:53 PM 54.0 °F 33.1 °F 45% 30.18 in 10.0 mi East 5.8 mph - N/A   Clear
10:53 PM 53.1 °F 34.0 °F 48% 30.17 in 10.0 mi ENE 3.5 mph - N/A   Clear
11:53 PM 53.1 °F 34.0 °F 48% 30.17 in 10.0 mi ESE 3.5 mph - N/A   Clear